Location: Br�ttisellen
(47.4227°N, 8.6287°E)
Time: 18:10:47
(UTC+00:00)

Cosmos 2219 Rocket - Pass Details

Date: 09 April 2020
Orbit: 829 x 845 km, 71.0° (Epoch: 28 May)

Event Time Altitude Azimuth Distance (km) Brightness Sun altitude
Rises 22:25:58 0° 338° (NNW) 3,389 6.4 -32.9°
Reaches altitude 10° 22:29:14 10° 357° (N) 2,450 5.4 -33.1°
Maximum altitude 22:33:02 18° 40° (NE) 1,929 4.3 -33.3°
Enters shadow 22:34:14 17° 56° (ENE) 1,984 4.2 -33.3°
